Regional Weather Roundup
Issued by NWS

Home | Current Version | Previous Version | Text Only | Print | Product List | Glossary On
Versions: 1 2 3 4 5 6 7 8 9 10 11 12 13 14 15 16 17 18 19 20 21 22 23 24 25 26 27
000
ASUS42 KKEY 281710
RWRKEY

FLORIDA REGIONAL WEATHER ROUNDUP FOR THE FLORIDA KEYS
NATIONAL WEATHER SERVICE KEY WEST FLORIDA
100 PM EDT SUN MAY 28 2017

...SOUTH FLORIDA AND THE KEYS...

CITY           SKY/WX    TMP DP  RH WIND       PRES   REMARKS
FORT MYERS     SUNNY     91  70  49 W10       30.06F HX  96
SW REGIONAL AP MOSUNNY   88  68  51 W8        30.07S HX  91
NAPLES         SUNNY     87  70  56 W12       30.08R HX  92
MIAMI          SUNNY     94  68  42 VRB5      30.05F HX  98
WEST KENDALL   SUNNY     90  63  40 SW9       30.06S HX  91
HOMESTEAD      MOSUNNY   92  74  55 SW7       30.05S HX 101
MARATHON       SUNNY     91  78  65 VRB6      30.07S HX 106
BOCA CHICA NAS MOSUNNY   87  78  74 S8        30.07F HX 100
KEY WEST INTL  SUNNY     86  76  71 S7        30.08S HX  96

...INTERNATIONAL WEATHER...

CITY           SKY/WX    TMP DP  RH WIND       PRES   REMARKS
NASSAU BAHAMAS MOSUNNY   88  75  66 S8        30.08R HX  97
CANCUN MEXICO  MOSUNNY   86  75  70 SE14      30.03R HX  95
COZUMEL MEXICO PTSUNNY   88  73  62 S7        29.99S HX  96

ADJACENT COASTAL WATERS...

STATION/POSITION TIME  SKY/WX   TEMP    WIND        PRES    WAVE
                                AIR SEA DIR/SP/G            HT/PER
                 (UTC)          (F)     (DEG/KT/KT) (MB)    (FT/S)
PULASKI SHOAL LI 1700            83      90/  4/  4 1018.9R
SAND KEY         1650            83     190/  7/  9 1019.1S
LONG KEY         1700            84 89  210/  4/  5 1018.1F
MOLASSES REEF    1700            83 83   CALM  /  1 1018.4F
FOWEY ROCKS      1700            88 81  210/  2/  2 1018.7F
Buoy 42097       1700                                 N/A     1/ 8

$$




USA.gov is the U.S. government's official web portal to all federal, state and local government web resources and services.